This is the latest recevied weather packets stored in our database for station/object F4GSP-4. If no packets are shown the sender has not sent any weather packets the latest 10 day(s).
| Time | Temp. | Humidity | Pressure | Rain* | Wind** | Luminosity | Snow |
|---|---|---|---|---|---|---|---|
| 1777895544 | 10.56° C | 50% | 1027.8 hPa | - | - | - | - |
| 1777894643 | 10.56° C | 50% | 1027.9 hPa | - | - | - | - |
| 1777893743 | 11.67° C | 50% | 1027.9 hPa | - | - | - | - |
| 1777892843 | 11.67° C | 50% | 1028 hPa | - | - | - | - |
| 1777891943 | 10.56° C | 50% | 1028.1 hPa | - | - | - | - |
| 1777891943 | 10.56° C | 50% | 1028.1 hPa | - | - | - | - |
| 1777891043 | 10° C | 49% | 1028.3 hPa | - | - | - | - |
| 1777890143 | 10.56° C | 49% | 1028.3 hPa | - | - | - | - |
| 1777889242 | 10° C | 49% | 1028.4 hPa | - | - | - | - |
| 1777888342 | 10.56° C | 49% | 1028.4 hPa | - | - | - | - |
| 1777887443 | 10° C | 49% | 1028.4 hPa | - | - | - | - |
| 1777887442 | 10° C | 49% | 1028.4 hPa | - | - | - | - |
| 1777886542 | 10° C | 48% | 1028.6 hPa | - | - | - | - |
| 1777885642 | 10.56° C | 48% | 1028.6 hPa | - | - | - | - |
| 1777884741 | 10° C | 48% | 1028.6 hPa | - | - | - | - |
| 1777883841 | 10° C | 48% | 1028.7 hPa | - | - | - | - |
| 1777882940 | 10° C | 48% | 1028.7 hPa | - | - | - | - |
| 1777882040 | 9.44° C | 48% | 1028.6 hPa | - | - | - | - |
| 1777881140 | 10° C | 47% | 1028.4 hPa | - | - | - | - |
| 1777880240 | 10.56° C | 47% | 1028.2 hPa | - | - | - | - |
| 1777879340 | 10.56° C | 47% | 1028 hPa | - | - | - | - |
| 1777878439 | 11.11° C | 47% | 1027.7 hPa | - | - | - | - |
| 1777877539 | 11.11° C | 47% | 1027.5 hPa | - | - | - | - |
| 1777876639 | 11.11° C | 47% | 1027.5 hPa | - | - | - | - |
| 1777875739 | 10.56° C | 47% | 1027.4 hPa | - | - | - | - |
* Rain since midnight (hover to see other rain measurements)
** Current wind speed in m/s (hover to see current wind gust speed)